Location: Appeville
(49.3218°N, 1.3427°W)
Time: 05:43:33
(UTC+00:00)

Cosmos 1943 - Pass Details

Date: 08 December 2019
Orbit: 835 x 848 km, 71.0° (Epoch: 19 January)

Event Time Altitude Azimuth Distance (km) Brightness Sun altitude
Exits shadow 06:11:45 17° 318° (NW) 1,988 4.6 -14.7°
Maximum altitude 06:15:48 48° 250° (WSW) 1,079 3.4 -14.1°
Drops below altitude 10° 06:21:10 10° 177° (S) 2,442 5.9 -13.3°
Sets 06:23:39 0° 172° (S) 3,373 6.7 -12.9°
